• Join FlightAware (Why Join?)
  • Login
  • US Flag 
04:05AM EST


 

Airport Tracker/Info


-or-


 

Live Flight TrackerFlight Track Log ✈ EJA328 ✈ 20-Mar-2014 ✈ KNEW - KHOU

Flight Track Log - Related Links

Times and Time Zones

All times are in EDT time to prevent confusion due to time zone crossing. See the EJA328 flight status page for this flight to view local times or setup timezone preferences in your user account.

Time Position Orientation Groundspeed Altitude Reporting Facility
EDT Latitude Longitude Course Direction KTS MPH feet Rate Location/Type
03:55PM 30.0528 -90.0297 253° West 166 191 800  Level Houston Center
03:56PM 30.0925 -90.0306 359° North 190 219 2,200 1,612 Climbing Houston Center
03:56PM 30.1042 -90.0300 North 187 215 2,600 3,488 Climbing Houston Center
03:57PM 30.1089 -90.1069 274° West 231 266 7,200 4,161 Climbing Houston Center
03:58PM 30.0806 -90.1861 248° West 259 298 11,200 3,552 Climbing Houston Center
03:59PM 30.0517 -90.2650 247° West 265 305 14,600 2,952 Climbing Houston Center
04:00PM 30.0211 -90.3492 247° West 279 321 17,300 2,710 Climbing Houston Center
04:01PM 29.8677 -90.5241 253° West  Level FlightAware Approximate
04:01PM 29.9900 -90.4283 246° West 270 311 20,200  Level Houston Center
04:03PM 29.9589 -90.5069 245° Southwest 269 310 22,800 2,784 Climbing Houston Center
04:04PM 29.9211 -90.5972 244° Southwest 265 305 26,000 2,496 Climbing Houston Center
04:05PM 29.8889 -90.6747 244° Southwest 265 305 28,000 1,790 Climbing Houston Center
04:06PM 29.8508 -90.7547 241° Southwest 279 321 29,700 627 Climbing Houston Center
04:11PM 29.7425 -91.2927 258° West 341 392 32,000 397 Climbing FlightAware ADS-B (KHOU)
04:11PM 29.7377 -91.3176 258° West 341 392 32,000  Level FlightAware ADS-B (KHOU)
04:13PM 29.7039 -91.4930 258° West 340 391 32,000  Level FlightAware ADS-B (KHOU)
04:13PM 29.6995 -91.5155 258° West 340 391 32,000  Level FlightAware ADS-B (KHOU)
04:14PM 29.6901 -91.5639 258° West 340 391 32,000  Level FlightAware ADS-B (KHOU)
04:15PM 29.6555 -91.7418 258° West 338 389 32,000  Level FlightAware ADS-B (KHOU)
04:16PM 29.6453 -91.7938 258° West 338 389 32,000  Level FlightAware ADS-B (KHOU)
04:16PM 29.6408 -91.8164 258° West 338 389 32,000  Level FlightAware ADS-B (KHOU)
04:17PM 29.6279 -91.8822 258° West 337 388 32,000  Level FlightAware ADS-B (KHOU)
04:17PM 29.6157 -91.9440 258° West 336 387 32,000  Level FlightAware ADS-B (KHOU)
04:18PM 29.6133 -91.9565 258° West 336 387 32,000  Level FlightAware ADS-B (KHOU)
04:18PM 29.5938 -92.0550 258° West 336 387 32,000  Level FlightAware ADS-B (KHOU)
04:19PM 29.5852 -92.0983 258° West 336 387 32,000  Level FlightAware ADS-B (KHOU)
04:19PM 29.5796 -92.1266 258° West 336 387 32,000  Level FlightAware ADS-B (KHOU)
04:20PM 29.5629 -92.2103 258° West 336 387 32,000  Level FlightAware ADS-B (KHOU)
04:20PM 29.5528 -92.2612 257° West 337 388 32,000  Level FlightAware ADS-B (KHOU)
04:21PM 29.5494 -92.2779 257° West 337 388 32,000  Level FlightAware ADS-B (KHOU)
04:21PM 29.5313 -92.3680 257° West 337 388 32,000  Level FlightAware ADS-B (KHOU)
04:22PM 29.5223 -92.4128 257° West 337 388 32,000  Level FlightAware ADS-B (KHOU)
04:22PM 29.5191 -92.4286 257° West 337 388 32,000  Level FlightAware ADS-B (KHOU)
04:24PM 29.4796 -92.6242 257° West 336 387 32,000  Level FlightAware ADS-B (KHOU)
04:24PM 29.4765 -92.6394 257° West 336 387 32,000  Level FlightAware ADS-B (KHOU)
04:25PM 29.4469 -92.7848 257° West 337 388 32,000  Level FlightAware ADS-B (KHOU)
04:26PM 29.4376 -92.8302 257° West 338 389 32,000  Level FlightAware ADS-B (KHOU)
04:26PM 29.4281 -92.8767 257° West 339 390 32,000  Level FlightAware ADS-B (KHOU)
04:27PM 29.4149 -92.9410 257° West 340 391 32,000  Level FlightAware ADS-B (KHOU)
04:27PM 29.4080 -92.9744 257° West 340 391 32,000  Level FlightAware ADS-B (KHOU)
04:28PM 29.3936 -93.0441 257° West 341 392 32,000  Level FlightAware ADS-B (KHOU)
04:28PM 29.3832 -93.0947 257° West 341 392 32,000  Level FlightAware ADS-B (KHOU)
04:29PM 29.3719 -93.1493 257° West 342 394 32,000  Level FlightAware ADS-B (KHOU)
04:29PM 29.3601 -93.2059 257° West 342 394 32,000  Level FlightAware ADS-B (KHOU)
04:30PM 29.3491 -93.2589 257° West 342 394 32,000 -1,337 Level FlightAware ADS-B (KHOU)
04:32PM 29.2913 -93.5351 257° West 378 435 27,900 -1,654 Descending FlightAware ADS-B (KHOU)
04:33PM 29.2782 -93.5971 257° West 394 453 26,900 -2,066 Descending FlightAware ADS-B (KHOU)
04:33PM 29.2653 -93.6581 257° West 393 452 25,800 -2,082 Descending FlightAware ADS-B (KHOU)
04:34PM 29.2617 -93.6967 270° West 389 448 25,200 -1,959 Descending FlightAware ADS-B (KHOU)
04:34PM 29.2628 -93.7591 271° West 388 447 24,200 -2,100 Descending FlightAware ADS-B (KHOU)
04:35PM 29.2632 -93.8206 271° West 384 442 23,100 -2,100 Descending FlightAware ADS-B (KHOU)
04:35PM 29.2637 -93.8800 271° West 377 434 22,100 -2,000 Descending FlightAware ADS-B (KHOU)
04:36PM 29.2643 -93.9403 271° West 378 435 21,100 -2,000 Descending FlightAware ADS-B (KHOU)
04:36PM 29.2648 -94.0000 271° West 376 433 20,100 -2,000 Descending FlightAware ADS-B (KHOU)
04:37PM 29.2653 -94.0594 271° West 377 434 19,100 -2,000 Descending FlightAware ADS-B (KHOU)
04:37PM 29.2658 -94.1193 271° West 377 434 18,100 -2,066 Descending FlightAware ADS-B (KHOU)
04:38PM 29.2662 -94.1785 271° West 365 420 17,000 -2,066 Descending FlightAware ADS-B (KHOU)
04:38PM 29.2666 -94.2354 271° West 357 411 16,000 -1,932 Descending FlightAware ADS-B (KHOU)
04:39PM 29.2670 -94.2904 271° West 357 411 15,100 -1,895 Descending FlightAware ADS-B (KHOU)
04:39PM 29.2673 -94.3359 271° West 358 412 14,200 -1,421 Descending FlightAware ADS-B (KHOU)
04:40PM 29.2689 -94.4083 271° West 359 413 13,300 -1,658 Descending Houston Center
04:40PM 29.2683 -94.4828 270° West 358 412 12,100 -2,323 Descending Houston Center
04:41PM 29.2939 -94.5364 299° West 353 406 10,900 -1,909 Descending Houston Center
04:41PM 29.3164 -94.5869 297° West 340 391 10,000 -871 Descending Houston Center
04:42PM 29.3394 -94.6300 302° West 339 390 10,000  Level Houston Center
04:42PM 29.3664 -94.6883 298° West 341 392 10,000  Level Houston Center
04:43PM 29.3869 -94.7256 302° West 343 395 10,000 -658 Level Houston Center
04:49PM 29.5855 -95.1863 251° West 273 314 5,800 -694 Descending FlightAware ADS-B (KHOU)
04:49PM 29.5802 -95.1990 242° Southwest 260 299 5,800  Level FlightAware ADS-B (KHOU)
04:49PM 29.5772 -95.2048 240° Southwest 250 288 5,800  Level FlightAware ADS-B (KHOU)
04:49PM 29.5667 -95.2270 243° Southwest 230 265 5,800  Level FlightAware ADS-B (KHOU)
04:50PM 29.5586 -95.2422 231° Southwest 233 268 5,800  Level FlightAware ADS-B (KHOU)
04:50PM 29.5543 -95.2472 225° Southwest 236 272 5,800 -439 Level FlightAware ADS-B (KHOU)
04:50PM 29.5262 -95.2777 225° Southwest 241 277 5,500 -735 Descending FlightAware ADS-B (KHOU)
04:51PM 29.5142 -95.2911 225° Southwest 242 278 5,200 -1,448 Descending FlightAware ADS-B (KHOU)
04:51PM 29.5025 -95.3040 225° Southwest 225 259 4,800 -1,600 Descending FlightAware ADS-B (KHOU)
04:51PM 29.4914 -95.3163 224° Southwest 218 251 4,400 -1,600 Descending FlightAware ADS-B (KHOU)
04:51PM 29.4805 -95.3281 225° Southwest 218 251 4,000 -1,500 Descending FlightAware ADS-B (KHOU)
04:51PM 29.4771 -95.3327 234° Southwest 217 250 3,900 -1,636 Descending FlightAware ADS-B (KHOU)
04:51PM 29.4749 -95.3381 249° West 210 242 3,700 -1,636 Descending FlightAware ADS-B (KHOU)
04:52PM 29.4743 -95.3429 264° West 204 235 3,600 -1,200 Descending FlightAware ADS-B (KHOU)
04:52PM 29.4746 -95.3482 280° West 199 229 3,500 -1,200 Descending FlightAware ADS-B (KHOU)
04:52PM 29.4765 -95.3537 296° West 199 229 3,400 -1,200 Descending FlightAware ADS-B (KHOU)
04:52PM 29.4790 -95.3576 308° West 200 230 3,300 -1,800 Descending FlightAware ADS-B (KHOU)
04:52PM 29.4821 -95.3617 313° West 201 231 3,100 -1,200 Descending FlightAware ADS-B (KHOU)
04:52PM 29.4918 -95.3736 314° West 205 236 2,900 -1,200 Descending FlightAware ADS-B (KHOU)
04:52PM 29.5017 -95.3856 314° West 207 238 2,500 -1,440 Descending FlightAware ADS-B (KHOU)
04:53PM 29.5087 -95.3930 324° Northwest 209 241 2,300 -1,714 Descending FlightAware ADS-B (KHOU)
04:53PM 29.5132 -95.3953 339° North 210 242 2,100 -2,000 Descending FlightAware ADS-B (KHOU)
04:53PM 29.5180 -95.3961 349° North 209 241 2,000 -1,091 Descending FlightAware ADS-B (KHOU)
04:53PM 29.5228 -95.3955 North 205 236 1,900 -545 Descending FlightAware ADS-B (KHOU)
04:53PM 29.5271 -95.3941 16° North 200 230 1,900 -250 Level FlightAware ADS-B (KHOU)
04:53PM 29.5442 -95.3880 18° North 193 222 1,800 -240 Descending FlightAware ADS-B (KHOU)
04:53PM 29.5484 -95.3858 27° Northeast 193 222 1,800  Level FlightAware ADS-B (KHOU)
04:53PM 29.5519 -95.3828 39° Northeast 191 220 1,800 600 Level FlightAware ADS-B (KHOU)
04:53PM 29.5551 -95.3790 47° Northeast 189 217 1,900 600 Climbing FlightAware ADS-B (KHOU)
04:54PM 29.5633 -95.3681 45° Northeast 185 213 2,000 400 Climbing FlightAware ADS-B (KHOU)
04:54PM 29.5727 -95.3580 42° Northeast 181 208 2,100 -414 Climbing FlightAware ADS-B (KHOU)
04:54PM 29.5818 -95.3485 44° Northeast 174 200 1,800 -1,241 Descending FlightAware ADS-B (KHOU)
04:54PM 29.5905 -95.3391 42° Northeast 166 191 1,500 -1,161 Descending FlightAware ADS-B (KHOU)
04:55PM 29.5981 -95.3304 45° Northeast 154 177 1,200 -968 Descending FlightAware ADS-B (KHOU)
04:55PM 29.6059 -95.3220 43° Northeast 151 174 1,000 -1,000 Descending FlightAware ADS-B (KHOU)
04:55PM 29.6132 -95.3138 44° Northeast 142 163 700 -1,000 Descending FlightAware ADS-B (KHOU)
04:55PM 29.6203 -95.3062 44° Northeast 142 163 500 -828 Descending FlightAware ADS-B (KHOU)
04:56PM 29.6268 -95.2990 44° Northeast 140 161 300 -857 Descending FlightAware ADS-B (KHOU)